| time (UTC) | temp F | wind direction | speed MPH | gust MPH | rain 1hr in | rain 24hr in | rain mn in | humidity % | barometer mb |
| 20260506084730 | 64 | 234 | 0.0 | 0.0 | 0.00 | 0.00 | 0.00 | 18 | 1005.4 |
| 20260506084230 | 64 | 234 | 0.0 | 0.0 | 0.00 | 0.00 | 0.00 | 21 | 1005.3 |
| 20260506083730 | 64 | 234 | 0.0 | 0.0 | 0.00 | 0.00 | 0.00 | 25 | 1005.4 |
| 20260506083230 | 65 | 234 | 0.0 | 0.0 | 0.00 | 0.00 | 0.00 | 30 | 1005.5 |
| 20260506082728 | 66 | 234 | 0.0 | 0.0 | 0.00 | 0.00 | 0.00 | 34 | 1005.5 |
| 20260506082221 | 66 | 234 | 0.0 | 0.0 | 0.00 | 0.00 | 0.00 | 38 | 1005.6 |
| 20260506081714 | 67 | 230 | 0.0 | 0.0 | 0.00 | 0.00 | 0.00 | 41 | 1005.5 |
| 20260506081209 | 67 | 230 | 0.0 | 7.0 | 0.00 | 0.00 | 0.00 | 42 | 1005.6 |
| 20260506080703 | 67 | 234 | 0.0 | 7.0 | 0.00 | 0.00 | 0.00 | 43 | 1005.6 |
| 20260506080157 | 67 | 245 | 0.0 | 6.0 | 0.00 | 0.00 | 0.00 | 44 | 1005.5 |
| 20260506073129 | 67 | 236 | 0.0 | 5.0 | 0.00 | 0.00 | 0.00 | 45 | 1005.5 |
| 20260506072629 | 67 | 234 | 0.0 | 2.0 | 0.00 | 0.00 | 0.00 | 45 | 1005.5 |
| 20260506072129 | 67 | 242 | 0.0 | 5.0 | 0.00 | 0.00 | 0.00 | 45 | 1005.5 |
| 20260506071628 | 67 | 237 | 0.0 | 5.0 | 0.00 | 0.00 | 0.00 | 45 | 1005.5 |
| 20260506071127 | 67 | 245 | 0.0 | 1.0 | 0.00 | 0.00 | 0.00 | 46 | 1005.5 |
| 20260506070628 | 68 | 257 | 0.0 | 4.0 | 0.00 | 0.00 | 0.00 | 46 | 1005.6 |
| 20260506070128 | 68 | 231 | 0.0 | 4.0 | 0.00 | 0.00 | 0.00 | 46 | 1005.7 |
| 20260506062125 | 68 | 225 | 0.0 | 0.0 | 0.00 | 0.00 | 0.00 | 48 | 1006.1 |
| 20260506061619 | 68 | 225 | 0.0 | 4.0 | 0.00 | 0.00 | 0.00 | 48 | 1006.1 |
| 20260506061113 | 68 | 226 | 0.0 | 4.0 | 0.00 | 0.00 | 0.00 | 48 | 1006.1 |
| 20260506060607 | 68 | 222 | 0.0 | 2.0 | 0.00 | 0.00 | 0.00 | 48 | 1006.1 |
| 20260506051027 | 69 | 234 | 0.0 | 4.0 | 0.00 | 0.00 | 0.00 | 51 | 1006.2 |
| 20260506050527 | 69 | 245 | 0.0 | 4.0 | 0.00 | 0.00 | 0.00 | 51 | 1006.4 |
| 20260506045026 | 69 | 244 | 0.0 | 1.0 | 0.00 | 0.00 | 0.00 | 51 | 1006.3 |
| 20260506044526 | 69 | 242 | 0.0 | 1.0 | 0.00 | 0.00 | 0.00 | 51 | 1006.3 |
| 20260506044023 | 69 | 243 | 0.0 | 1.0 | 0.00 | 0.00 | 0.00 | 51 | 1006.3 |
| 20260506043521 | 69 | 244 | 0.0 | 1.0 | 0.00 | 0.00 | 0.00 | 51 | 1006.3 |
| 20260506043021 | 69 | 244 | 0.0 | 1.0 | 0.00 | 0.00 | 0.00 | 51 | 1006.3 |
| 20260506042521 | 69 | 244 | 0.0 | 7.0 | 0.00 | 0.00 | 0.00 | 51 | 1006.3 |
| 20260506042019 | 69 | 246 | 0.0 | 7.0 | 0.00 | 0.00 | 0.00 | 51 | 1006.2 |
| 20260506041517 | 69 | 223 | 0.0 | 5.0 | 0.00 | 0.00 | 0.00 | 51 | 1006.2 |
| 20260506041018 | 69 | 222 | 0.0 | 0.0 | 0.00 | 0.00 | 0.00 | 52 | 1006.1 |
| 20260506040517 | 69 | 223 | 0.0 | 1.0 | 0.00 | 0.00 | 0.00 | 52 | 1006.1 |
| 20260506040017 | 69 | 226 | 0.0 | 1.0 | 0.00 | 0.00 | 0.00 | 51 | 1006.0 |
| 20260506035511 | 69 | 222 | 0.0 | 0.0 | 0.00 | 0.00 | 0.00 | 52 | 1006.1 |
| 20260506035005 | 69 | 222 | 0.0 | 0.0 | 0.00 | 0.00 | 0.00 | 51 | 1006.1 |
| 20260506034500 | 69 | 222 | 0.0 | 0.0 | 0.00 | 0.00 | 0.00 | 51 | 1006.1 |
| 20260506033953 | 70 | 222 | 0.0 | 0.0 | 0.00 | 0.00 | 0.00 | 51 | 1006.1 |
| 20260506033707 | 70 | 223 | 0.0 | 1.0 | 0.00 | 0.00 | 0.00 | 50 | 1006.1 |
| 20260506033205 | 70 | 223 | 0.0 | 2.0 | 0.00 | 0.00 | 0.00 | 50 | 1005.9 |
| 20260506032435 | 71 | 223 | 0.0 | 6.0 | 0.00 | 0.00 | 0.00 | 50 | 1006.0 |
| 20260506031929 | 71 | 223 | 0.0 | 6.0 | 0.00 | 0.00 | 0.00 | 49 | 1005.9 |
| 20260506031423 | 71 | 223 | 0.0 | 8.0 | 0.00 | 0.00 | 0.00 | 48 | 1006.0 |
| 20260506030917 | 71 | 223 | 0.0 | 8.0 | 0.00 | 0.00 | 0.00 | 48 | 1006.0 |
| 20260506030411 | 71 | 233 | 0.0 | 5.0 | 0.00 | 0.00 | 0.00 | 48 | 1005.9 |
| 20260506030123 | 72 | 233 | 0.0 | 5.0 | 0.00 | 0.00 | 0.00 | 48 | 1006.0 |
| 20260506025359 | 72 | 226 | 0.0 | 0.0 | 0.00 | 0.00 | 0.00 | 46 | 1005.9 |
| 20260506025115 | 73 | 225 | 0.0 | 7.0 | 0.00 | 0.00 | 0.00 | 45 | 1006.0 |
| 20260506024347 | 73 | 216 | 0.0 | 7.0 | 0.00 | 0.00 | 0.00 | 45 | 1006.0 |
| 20260506023841 | 73 | 253 | 0.0 | 4.0 | 0.00 | 0.00 | 0.00 | 44 | 1005.9 |
| 20260506023336 | 73 | 263 | 0.0 | 4.0 | 0.00 | 0.00 | 0.00 | 45 | 1005.9 |
| 20260506022829 | 73 | 259 | 0.0 | 4.0 | 0.00 | 0.00 | 0.00 | 45 | 1005.9 |
| 20260506022322 | 73 | 200 | 0.0 | 1.0 | 0.00 | 0.00 | 0.00 | 44 | 1005.8 |
| 20260506021817 | 73 | 246 | 0.0 | 0.0 | 0.00 | 0.00 | 0.00 | 44 | 1005.8 |
| 20260506021311 | 73 | 246 | 0.0 | 0.0 | 0.00 | 0.00 | 0.00 | 44 | 1005.8 |
| 20260506020804 | 73 | 238 | 0.0 | 0.0 | 0.00 | 0.00 | 0.00 | 43 | 1005.7 |
| 20260506020258 | 74 | 237 | 0.0 | 0.0 | 0.00 | 0.00 | 0.00 | 43 | 1005.6 |
| 20260506015753 | 74 | 236 | 0.0 | 2.0 | 0.00 | 0.00 | 0.00 | 42 | 1005.6 |
| 20260506015247 | 74 | 221 | 0.0 | 2.0 | 0.00 | 0.00 | 0.00 | 42 | 1005.5 |
| 20260506014741 | 73 | 241 | 0.0 | 6.0 | 0.00 | 0.00 | 0.00 | 42 | 1005.5 |
| 20260506014235 | 73 | 243 | 0.0 | 6.0 | 0.00 | 0.00 | 0.00 | 43 | 1005.4 |
| 20260506013729 | 74 | 238 | 0.0 | 5.0 | 0.00 | 0.00 | 0.00 | 44 | 1005.4 |
| 20260506013223 | 74 | 238 | 0.0 | 1.0 | 0.00 | 0.00 | 0.00 | 42 | 1005.3 |
| 20260506012942 | 74 | 238 | 0.0 | 1.0 | 0.00 | 0.00 | 0.00 | 43 | 1005.3 |
| 20260506012221 | 74 | 244 | 0.0 | 1.0 | 0.00 | 0.00 | 0.00 | 42 | 1005.3 |
| 20260506012209 | 74 | 252 | 0.0 | 0.0 | 0.00 | 0.00 | 0.00 | 42 | 1005.2 |
| 20260506011220 | 75 | 252 | 0.0 | 1.0 | 0.00 | 0.00 | 0.00 | 41 | 1005.1 |
| 20260506010717 | 75 | 181 | 0.0 | 1.0 | 0.00 | 0.00 | 0.00 | 40 | 1005.1 |
| 20260506010217 | 75 | 184 | 0.0 | 5.0 | 0.00 | 0.00 | 0.00 | 40 | 1005.0 |
| 20260506005717 | 75 | 251 | 0.0 | 5.0 | 0.00 | 0.00 | 0.00 | 41 | 1005.0 |
| 20260506005216 | 76 | 241 | 0.0 | 4.0 | 0.00 | 0.00 | 0.00 | 40 | 1005.0 |
| 20260506004930 | 76 | 273 | 0.0 | 5.0 | 0.00 | 0.00 | 0.00 | 39 | 1004.9 |
| 20260506004212 | 76 | 240 | 0.0 | 5.0 | 0.00 | 0.00 | 0.00 | 39 | 1004.8 |
| 20260506003708 | 76 | 248 | 0.0 | 6.0 | 0.00 | 0.00 | 0.00 | 40 | 1004.7 |
| 20260506003207 | 76 | 253 | 0.0 | 6.0 | 0.00 | 0.00 | 0.00 | 39 | 1004.7 |
| 20260506002705 | 76 | 232 | 0.0 | 9.0 | 0.00 | 0.00 | 0.00 | 39 | 1004.7 |
| 20260506002203 | 77 | 249 | 1.0 | 12.0 | 0.00 | 0.00 | 0.00 | 38 | 1004.7 |
| 20260506001703 | 76 | 224 | 1.0 | 12.0 | 0.00 | 0.00 | 0.00 | 38 | 1004.6 |
| 20260506001203 | 77 | 246 | 1.0 | 11.0 | 0.00 | 0.00 | 0.00 | 38 | 1004.6 |
| 20260506000704 | 77 | 265 | 1.0 | 11.0 | 0.00 | 0.00 | 0.00 | 39 | 1004.5 |
| 20260506000204 | 77 | 257 | 1.0 | 18.0 | 0.00 | 0.00 | 0.00 | 38 | 1004.5 |
| 20260505235703 | 77 | 240 | 1.0 | 18.0 | 0.00 | 0.00 | 0.00 | 37 | 1004.5 |
| 20260505235424 | 77 | 264 | 1.0 | 15.0 | 0.00 | 0.00 | 0.00 | 37 | 1004.5 |
| 20260505234657 | 77 | 238 | 2.0 | 19.0 | 0.00 | 0.00 | 0.00 | 37 | 1004.4 |
| 20260505234157 | 78 | 234 | 3.0 | 19.0 | 0.00 | 0.00 | 0.00 | 36 | 1004.3 |
| 20260505233655 | 78 | 241 | 2.0 | 18.0 | 0.00 | 0.00 | 0.00 | 37 | 1004.3 |
| 20260505233154 | 78 | 247 | 1.0 | 13.0 | 0.00 | 0.00 | 0.00 | 36 | 1004.1 |
| 20260505232918 | 78 | 216 | 1.0 | 14.0 | 0.00 | 0.00 | 0.00 | 36 | 1004.0 |
| 20260505232155 | 78 | 248 | 1.0 | 14.0 | 0.00 | 0.00 | 0.00 | 36 | 1004.0 |
| 20260505231655 | 78 | 234 | 1.0 | 10.0 | 0.00 | 0.00 | 0.00 | 37 | 1003.9 |
| 20260505231155 | 78 | 215 | 1.0 | 20.0 | 0.00 | 0.00 | 0.00 | 35 | 1003.8 |
| 20260505230656 | 78 | 222 | 1.0 | 20.0 | 0.00 | 0.00 | 0.00 | 36 | 1003.9 |
| 20260505230155 | 78 | 219 | 2.0 | 16.0 | 0.00 | 0.00 | 0.00 | 35 | 1003.9 |
| 20260505225654 | 79 | 169 | 2.0 | 20.0 | 0.00 | 0.00 | 0.00 | 35 | 1003.8 |
| 20260505225154 | 79 | 232 | 2.0 | 20.0 | 0.00 | 0.00 | 0.00 | 34 | 1003.7 |
| 20260505224919 | 79 | 259 | 2.0 | 18.0 | 0.00 | 0.00 | 0.00 | 34 | 1003.6 |
| 20260505224419 | 79 | 222 | 2.0 | 18.0 | 0.00 | 0.00 | 0.00 | 35 | 1003.5 |
| 20260505223649 | 79 | 242 | 2.0 | 18.0 | 0.00 | 0.00 | 0.00 | 33 | 1003.5 |
| 20260505223428 | 79 | 265 | 1.0 | 14.0 | 0.00 | 0.00 | 0.00 | 33 | 1003.4 |
| 20260505222649 | 79 | 219 | 1.0 | 12.0 | 0.00 | 0.00 | 0.00 | 34 | 1003.3 |
| 20260505222149 | 80 | 236 | 2.0 | 19.0 | 0.00 | 0.00 | 0.00 | 34 | 1003.3 |
| 20260505221649 | 80 | 221 | 2.0 | 19.0 | 0.00 | 0.00 | 0.00 | 34 | 1003.3 |
| 20260505221149 | 80 | 240 | 1.0 | 14.0 | 0.00 | 0.00 | 0.00 | 34 | 1003.2 |
| 20260505220648 | 80 | 260 | 1.0 | 14.0 | 0.00 | 0.00 | 0.00 | 34 | 1003.2 |
| 20260505220148 | 80 | 220 | 0.0 | 9.0 | 0.00 | 0.00 | 0.00 | 33 | 1003.1 |
| 20260505215648 | 80 | 238 | 2.0 | 19.0 | 0.00 | 0.00 | 0.00 | 33 | 1003.1 |
| 20260505215150 | 80 | 252 | 3.0 | 19.0 | 0.00 | 0.00 | 0.00 | 32 | 1003.0 |
| 20260505214645 | 80 | 219 | 2.0 | 13.0 | 0.00 | 0.00 | 0.00 | 32 | 1003.0 |
| 20260505214145 | 81 | 257 | 2.0 | 14.0 | 0.00 | 0.00 | 0.00 | 33 | 1003.0 |
| 20260505213646 | 81 | 242 | 2.0 | 14.0 | 0.00 | 0.00 | 0.00 | 32 | 1002.9 |
| 20260505213144 | 81 | 256 | 3.0 | 20.0 | 0.00 | 0.00 | 0.00 | 32 | 1002.7 |
| 20260505212644 | 81 | 228 | 2.0 | 20.0 | 0.00 | 0.00 | 0.00 | 34 | 1002.7 |
| 20260505212144 | 81 | 238 | 2.0 | 13.0 | 0.00 | 0.00 | 0.00 | 34 | 1002.8 |
| 20260505211645 | 82 | 221 | 3.0 | 15.0 | 0.00 | 0.00 | 0.00 | 32 | 1002.7 |
| 20260505211145 | 82 | 215 | 2.0 | 15.0 | 0.00 | 0.00 | 0.00 | 32 | 1002.8 |
| 20260505210645 | 82 | 234 | 2.0 | 18.0 | 0.00 | 0.00 | 0.00 | 32 | 1002.7 |
| 20260505210410 | 82 | 168 | 5.0 | 20.0 | 0.00 | 0.00 | 0.00 | 33 | 1002.7 |
| 20260505205645 | 83 | 229 | 6.0 | 20.0 | 0.00 | 0.00 | 0.00 | 31 | 1002.7 |
| 20260505205145 | 84 | 259 | 8.0 | 22.0 | 0.00 | 0.00 | 0.00 | 31 | 1002.5 |
| 20260505204644 | 83 | 248 | 10.0 | 22.0 | 0.00 | 0.00 | 0.00 | 30 | 1002.5 |
| 20260505204144 | 84 | 204 | 9.0 | 21.0 | 0.00 | 0.00 | 0.00 | 29 | 1002.5 |
| 20260505203645 | 84 | 253 | 8.0 | 18.0 | 0.00 | 0.00 | 0.00 | 30 | 1002.6 |
| 20260505203145 | 84 | 202 | 9.0 | 24.0 | 0.00 | 0.00 | 0.00 | 31 | 1002.6 |
| 20260505202645 | 84 | 254 | 8.0 | 24.0 | 0.00 | 0.00 | 0.00 | 29 | 1002.5 |
| 20260505202145 | 84 | 295 | 6.0 | 14.0 | 0.00 | 0.00 | 0.00 | 34 | 1002.7 |
| 20260505201645 | 84 | 292 | 4.0 | 21.0 | 0.00 | 0.00 | 0.00 | 32 | 1002.8 |
| 20260505201145 | 83 | 175 | 5.0 | 21.0 | 0.00 | 0.00 | 0.00 | 31 | 1002.8 |
| 20260505200645 | 82 | 240 | 7.0 | 26.0 | 0.00 | 0.00 | 0.00 | 32 | 1002.9 |
| 20260505200144 | 83 | 274 | 7.0 | 26.0 | 0.00 | 0.00 | 0.00 | 32 | 1003.0 |
| 20260505195642 | 83 | 234 | 5.0 | 22.0 | 0.00 | 0.00 | 0.00 | 32 | 1003.0 |
| 20260505195143 | 83 | 175 | 4.0 | 15.0 | 0.00 | 0.00 | 0.00 | 32 | 1003.2 |
| 20260505194643 | 83 | 271 | 7.0 | 26.0 | 0.00 | 0.00 | 0.00 | 32 | 1003.2 |
| 20260505194143 | 83 | 167 | 8.0 | 26.0 | 0.00 | 0.00 | 0.00 | 32 | 1003.2 |
| 20260505193643 | 83 | 169 | 7.0 | 24.0 | 0.00 | 0.00 | 0.00 | 32 | 1003.2 |
| 20260505193142 | 83 | 208 | 7.0 | 25.0 | 0.00 | 0.00 | 0.00 | 32 | 1003.2 |
| 20260505193125 | 83 | 232 | 9.0 | 28.0 | 0.00 | 0.00 | 0.00 | 33 | 1003.5 |
| 20260505192400 | 83 | 227 | 11.0 | 28.0 | 0.00 | 0.00 | 0.00 | 32 | 1003.3 |
| 20260505191639 | 83 | 213 | 12.0 | 29.0 | 0.00 | 0.00 | 0.00 | 33 | 1003.5 |
| 20260505191139 | 83 | 281 | 11.0 | 33.0 | 0.00 | 0.00 | 0.00 | 32 | 1003.4 |
| 20260505190639 | 83 | 227 | 9.0 | 33.0 | 0.00 | 0.00 | 0.00 | 32 | 1003.5 |
| 20260505190137 | 83 | 202 | 7.0 | 20.0 | 0.00 | 0.00 | 0.00 | 33 | 1003.7 |
| 20260505185637 | 83 | 250 | 9.0 | 20.0 | 0.00 | 0.00 | 0.00 | 35 | 1003.8 |
| 20260505185135 | 83 | 239 | 9.0 | 23.0 | 0.00 | 0.00 | 0.00 | 33 | 1003.8 |
| 20260505184635 | 83 | 252 | 9.0 | 23.0 | 0.00 | 0.00 | 0.00 | 35 | 1003.8 |
| 20260505184551 | 82 | 288 | 10.0 | 24.0 | 0.00 | 0.00 | 0.00 | 35 | 1004.0 |
| 20260505184504 | 82 | 244 | 10.0 | 25.0 | 0.00 | 0.00 | 0.00 | 34 | 1003.9 |
| 20260505184423 | 82 | 246 | 10.0 | 25.0 | 0.00 | 0.00 | 0.00 | 35 | 1003.8 |
| 20260505182643 | 82 | 228 | 10.0 | 23.0 | 0.00 | 0.00 | 0.00 | 36 | 1004.1 |
| 20260505182130 | 82 | 235 | 10.0 | 23.0 | 0.00 | 0.00 | 0.00 | 39 | 1004.1 |
| 20260505182119 | 82 | 168 | 10.0 | 22.0 | 0.00 | 0.00 | 0.00 | 37 | 1004.2 |
| 20260505181349 | 82 | 277 | 9.0 | 22.0 | 0.00 | 0.00 | 0.00 | 38 | 1004.2 |
| 20260505180618 | 81 | 277 | 9.0 | 21.0 | 0.00 | 0.00 | 0.00 | 39 | 1004.3 |
| 20260505180336 | 81 | 284 | 10.0 | 28.0 | 0.00 | 0.00 | 0.00 | 37 | 1004.2 |
| 20260505175606 | 82 | 242 | 10.0 | 28.0 | 0.00 | 0.00 | 0.00 | 37 | 1004.3 |
| 20260505175348 | 81 | 198 | 8.0 | 23.0 | 0.00 | 0.00 | 0.00 | 39 | 1004.4 |
| 20260505175101 | 82 | 213 | 8.0 | 23.0 | 0.00 | 0.00 | 0.00 | 38 | 1004.2 |
| 20260505174813 | 81 | 207 | 9.0 | 21.0 | 0.00 | 0.00 | 0.00 | 39 | 1004.6 |
| 20260505173835 | 81 | 159 | 9.0 | 20.0 | 0.00 | 0.00 | 0.00 | 38 | 1004.4 |
| 20260505173327 | 81 | 284 | 8.0 | 20.0 | 0.00 | 0.00 | 0.00 | 40 | 1004.6 |
| 20260505173054 | 81 | 188 | 9.0 | 20.0 | 0.00 | 0.00 | 0.00 | 40 | 1004.6 |
| 20260505172328 | 80 | 248 | 8.0 | 20.0 | 0.00 | 0.00 | 0.00 | 42 | 1004.7 |
| 20260505172058 | 80 | 252 | 8.0 | 20.0 | 0.00 | 0.00 | 0.00 | 41 | 1004.6 |
| 20260505171121 | 80 | 253 | 8.0 | 20.0 | 0.00 | 0.00 | 0.00 | 41 | 1004.7 |
| 20260505170850 | 80 | 190 | 8.0 | 16.0 | 0.00 | 0.00 | 0.00 | 43 | 1004.9 |
| 20260505170051 | 79 | 244 | 7.0 | 16.0 | 0.00 | 0.00 | 0.00 | 42 | 1004.8 |
| 20260505165825 | 79 | 163 | 7.0 | 19.0 | 0.00 | 0.00 | 0.00 | 44 | 1004.8 |
| 20260505165049 | 79 | 227 | 8.0 | 19.0 | 0.00 | 0.00 | 0.00 | 42 | 1005.0 |
| 20260505164820 | 79 | 254 | 6.0 | 19.0 | 0.00 | 0.00 | 0.00 | 43 | 1005.1 |
| 20260505164048 | 79 | 231 | 6.0 | 19.0 | 0.00 | 0.00 | 0.00 | 43 | 1005.1 |
| 20260505163549 | 79 | 218 | 6.0 | 16.0 | 0.00 | 0.00 | 0.00 | 44 | 1005.1 |
| 20260505163050 | 78 | 268 | 7.0 | 15.0 | 0.00 | 0.00 | 0.00 | 44 | 1005.2 |
| 20260505163032 | 77 | 216 | 7.0 | 15.0 | 0.00 | 0.00 | 0.00 | 45 | 1005.4 |
| 20260505162906 | 78 | 222 | 7.0 | 15.0 | 0.00 | 0.00 | 0.00 | 44 | 1005.3 |
| 20260505161544 | 77 | 173 | 7.0 | 15.0 | 0.00 | 0.00 | 0.00 | 45 | 1005.6 |
| 20260505161310 | 77 | 238 | 7.0 | 14.0 | 0.00 | 0.00 | 0.00 | 44 | 1005.7 |
| 20260505160530 | 77 | 174 | 7.0 | 14.0 | 0.00 | 0.00 | 0.00 | 45 | 1005.7 |
| 20260505152948 | 76 | 240 | 6.0 | 16.0 | 0.00 | 0.00 | 0.00 | 46 | 1006.2 |
| 20260505152443 | 76 | 227 | 6.0 | 16.0 | 0.00 | 0.00 | 0.00 | 47 | 1006.2 |
| 20260505151936 | 75 | 243 | 7.0 | 13.0 | 0.00 | 0.00 | 0.00 | 46 | 1006.2 |
| 20260505151435 | 75 | 266 | 6.0 | 13.0 | 0.00 | 0.00 | 0.00 | 46 | 1006.1 |
| 20260505151430 | 75 | 229 | 7.0 | 12.0 | 0.00 | 0.00 | 0.00 | 46 | 1006.2 |
| 20260505150705 | 75 | 259 | 5.0 | 13.0 | 0.00 | 0.00 | 0.00 | 46 | 1006.1 |
| 20260505150143 | 75 | 245 | 5.0 | 12.0 | 0.00 | 0.00 | 0.00 | 46 | 1006.2 |
| 20260505140306 | 70 | 292 | 2.0 | 7.0 | 0.00 | 0.00 | 0.00 | 41 | 1007.1 |
| 20260505140107 | 68 | 267 | 3.0 | 7.0 | 0.00 | 0.00 | 0.00 | 41 | 1007.1 |
| 20260505123858 | 60 | 253 | 0.0 | 5.0 | 0.00 | 0.00 | 0.00 | 1 | 1007.3 |
| 20260505123118 | 59 | 238 | 0.0 | 0.0 | 0.00 | 0.00 | 0.00 | 1 | 1007.1 |
| 20260505122613 | 59 | 238 | 0.0 | 0.0 | 0.00 | 0.00 | 0.00 | 1 | 1007.4 |
| 20260505122538 | 58 | 238 | 0.0 | 0.0 | 0.00 | 0.00 | 0.00 | 1 | 1007.4 |
| 20260505122200 | 58 | 238 | 0.0 | 0.0 | 0.00 | 0.00 | 0.00 | 1 | 1007.3 |
| 20260505122145 | 59 | 238 | 0.0 | 0.0 | 0.00 | 0.00 | 0.00 | 1 | 1007.4 |
| 20260505121438 | 57 | 237 | 0.0 | 5.0 | 0.00 | 0.00 | 0.00 | 1 | 1007.4 |
| 20260505121430 | 58 | 238 | 0.0 | 4.0 | 0.00 | 0.00 | 0.00 | 1 | 1007.4 |
| 20260505120949 | 56 | 237 | 0.0 | 5.0 | 0.00 | 0.00 | 0.00 | 1 | 1007.3 |
| 20260505120601 | 56 | 0 | 0.0 | 0.0 | 0.00 | 0.00 | 0.00 | 1 | 1007.4 |
| 20260505120552 | 55 | 0 | 0.0 | 4.0 | 0.00 | 0.00 | 0.00 | 1 | 1007.4 |
| 20260505120548 | 58 | 238 | 0.0 | 4.0 | 0.00 | 0.00 | 0.00 | 1 | 1007.4 |
| 20260505120543 | 54 | 0 | 1.0 | 6.0 | 0.00 | 0.00 | 0.00 | 1 | 1007.3 |
| 20260505113532 | 55 | 0 | 1.0 | 6.0 | 0.00 | 0.00 | 0.00 | 1 | 1007.4 |
| 20260505113437 | 53 | 228 | 2.0 | 6.0 | 0.00 | 0.00 | 0.00 | 1 | 1007.6 |
| 20260505112158 | 52 | 216 | 0.0 | 0.0 | 0.00 | 0.00 | 0.00 | 1 | 1007.6 |
| 20260505112006 | 52 | 217 | 0.0 | 4.0 | 0.00 | 0.00 | 0.00 | 1 | 1007.6 |
| 20260505111954 | 53 | 221 | 1.0 | 6.0 | 0.00 | 0.00 | 0.00 | 1 | 1007.4 |
| 20260505111847 | 51 | 216 | 0.0 | 0.0 | 0.00 | 0.00 | 0.00 | 1 | 1007.7 |
| 20260505111823 | 52 | 216 | 0.0 | 0.0 | 0.00 | 0.00 | 0.00 | 1 | 1007.7 |
| 20260505101919 | 48 | 0 | 0.0 | 0.0 | 0.00 | 0.00 | 0.00 | 1 | 1007.2 |
| 20260505101419 | 48 | 213 | 0.0 | 0.0 | 0.00 | 0.00 | 0.00 | 1 | 1007.0 |
| 20260505100921 | 48 | 213 | 0.0 | 0.0 | 0.00 | 0.00 | 0.00 | 1 | 1007.0 |
| 20260505100418 | 47 | 213 | 0.0 | 0.0 | 0.00 | 0.00 | 0.00 | 1 | 1007.0 |
| 20260505100410 | 47 | 213 | 0.0 | 0.0 | 0.00 | 0.00 | 0.00 | 1 | 1006.9 |
| 20260505095416 | 47 | 213 | 0.0 | 0.0 | 0.00 | 0.00 | 0.00 | 1 | 1006.9 |
| 20260505095144 | 47 | 213 | 0.0 | 0.0 | 0.00 | 0.00 | 0.00 | 1 | 1007.0 |
| 20260505095020 | 47 | 213 | 0.0 | 0.0 | 0.00 | 0.00 | 0.00 | 1 | 1007.1 |
| 20260505094845 | 47 | 213 | 0.0 | 0.0 | 0.00 | 0.00 | 0.00 | 1 | 1006.9 |
| 20260505093416 | 47 | 213 | 0.0 | 0.0 | 0.00 | 0.00 | 0.00 | 1 | 1006.9 |
| 20260505092916 | 47 | 213 | 0.0 | 0.0 | 0.00 | 0.00 | 0.00 | 1 | 1006.9 |
| 20260505092415 | 47 | 213 | 0.0 | 0.0 | 0.00 | 0.00 | 0.00 | 1 | 1006.8 |
| 20260505091914 | 47 | 213 | 0.0 | 0.0 | 0.00 | 0.00 | 0.00 | 1 | 1006.6 |
| 20260505091412 | 47 | 213 | 0.0 | 0.0 | 0.00 | 0.00 | 0.00 | 1 | 1006.6 |
| 20260505090912 | 47 | 213 | 0.0 | 0.0 | 0.00 | 0.00 | 0.00 | 1 | 1006.7 |
| 20260505090636 | 47 | 213 | 0.0 | 0.0 | 0.00 | 0.00 | 0.00 | 1 | 1006.6 |
| 20260505090132 | 47 | 213 | 0.0 | 0.0 | 0.00 | 0.00 | 0.00 | 1 | 1006.5 |
| 20260505085413 | 48 | 213 | 0.0 | 0.0 | 0.00 | 0.00 | 0.00 | 1 | 1006.5 |
| 20260505085205 | 48 | 213 | 0.0 | 0.0 | 0.00 | 0.00 | 0.00 | 1 | 1006.6 |